Regional Weather Roundup
Issued by NWS Goodland, KS

Home | Current Version | Previous Version | Graphics & Text | Print | Product List | Glossary On
Versions: 1 2 3 4 5 6 7 8 9 10 11 12 13 14 15 16 17 18 19 20 21 22 23 24 25 26 27 28 29 30 31 32 33 34 35 36 37 38 39 40 41 42 43 44 45 46 47 48 49 50
000
ASUS43 KGLD 201808
RWRGLD

GOODLAND FORECAST AREA HOURLY WEATHER ROUNDUP
NATIONAL WEATHER SERVICE GOODLAND KS
1200 PM MDT SUN APR 20 2014

...OFFICIAL OBSERVATIONS...

CITY           SKY/WX    TMP DP  RH WIND       PRES   REMARKS
GOODLAND KS    PTSUNNY   62  50  64 E5        30.01S
HILL CITY KS   PTSUNNY   75  51  43 S15G21    29.98F
IMPERIAL NEB   PTSUNNY   67  48  50 N5        30.00F
MCCOOK NEB     MOSUNNY   68  54  60 VRB5      29.98F
AKRON CO       PTSUNNY   67  39  35 N7        30.04F
BURLINGTON CO  PTSUNNY   67  47  48 N10       30.01F
LIMON CO       PTSUNNY   65  41  41 N14       30.06F
$$

...UNOFFICIAL OBSERVATIONS...

CITY           SKY/WX    TMP DP  RH WIND       PRES   REMARKS
COLBY KS       PTSUNNY   70  55  60 SE9       29.99F
LENORA KS        N/A     71  32  23 S10         N/A
LEOTI KS         N/A     69  32  25 SW7         N/A
NORTON KS      PTSUNNY   66  52  59 SE8       29.98F
OBERLIN KS     FAIR      73  52  46 SE8       29.97F
SHARON SPRINGS   N/A     69  54  58 CALM        N/A
ST FRANCIS KS  PTSUNNY   68  46  45 E7        29.99F
TRIBUNE KS     MOSUNNY   68  54  60 SE6       30.00F
WAKEENEY KS      N/A     74  46  37 MISG        N/A
KIT CARSON CO    N/A     69  48  47 MISG        N/A
$$



USA.gov is the U.S. government's official web portal to all federal, state and local government web resources and services.